Weather History for Port Angeles, WA

Change the Weather History Date:

Sunday, September 22, 2013

  Actual Average Record
Temperature  
Mean Temperature 56 °F -  
Max Temperature 62 °F 64 °F 81 °F (1974)
Min Temperature 51 °F 47 °F 37 °F (2000)
Degree Days  
Heating Degree Days 9    
Growing Degree Days 6 (Base 50)    
Moisture  
Dew Point 52 °F    
Average Humidity 90    
Maximum Humidity 97    
Minimum Humidity 77    
Precipitation  
Precipitation 0.41 in - - ()
Sea Level Pressure  
Sea Level Pressure 29.56 in    
Wind  
Wind Speed 3 mph (WSW)    
Max Wind Speed 14 mph    
Max Gust Speed -    
Visibility 8 miles    
Events Rain    
Averages and records for this station are not official NWS values.
T = Trace of Precipitation, MM = Missing Value Source: NWS Daily Summary

Daily Weather History Graph

Daily Weather History Graph

Search for Another Location

Airport:

Trip Planner

Search our weather history database for the weather conditions in past years. The results will help you decide how hot, cold, wet, or windy it might be!

Date:

Astronomy

Sep. 22, 2013 Rise Set
Actual Time 7:01 AM PDT 7:11 PM PDT
Civil Twilight 6:30 AM PDT 7:42 PM PDT
Nautical Twilight 5:53 AM PDT 8:18 PM PDT
Astronomical Twilight 5:15 AM PDT 8:56 PM PDT
Moon 8:45 PM PDT (9/22) 10:45 AM PDT (9/22)
Length of Visible Light 13h 11m
Length of Day
12h 09m
Waning Gibbous, 88% of the Moon is Illuminated
Sep 22
Waning Gibbous
Sep 26
Last Quarter
Oct 4
New
Oct 11
First Quarter
Oct 18
Full

Hourly Weather History & Observations

Time (PDT) Temp. Dew Point Humidity Pressure Visibility Wind Dir Wind Speed Gust Speed Precip Events Conditions
12:53 AM 51.1 °F 50.0 °F 96% 29.67 in 10.0 mi Calm Calm - N/A   Partly Cloudy
1:53 AM 51.1 °F 50.0 °F 96% 29.65 in 10.0 mi SSE 3.5 mph - N/A   Mostly Cloudy
2:53 AM 52.0 °F 51.1 °F 97% 29.65 in 10.0 mi Calm Calm - N/A   Overcast
3:53 AM 53.1 °F 52.0 °F 96% 29.63 in 10.0 mi Calm Calm - 0.00 in Rain Light Rain
4:53 AM 53.1 °F 51.1 °F 93% 29.62 in 10.0 mi SSE 4.6 mph - 0.00 in   Overcast
5:53 AM 54.0 °F 52.0 °F 93% 29.61 in 10.0 mi SW 4.6 mph - 0.00 in Rain Light Rain
6:53 AM 52.0 °F 51.1 °F 97% 29.59 in 10.0 mi Calm Calm - 0.00 in   Overcast
7:30 AM 53.1 °F 52.0 °F 96% 29.58 in 10.0 mi Calm Calm - N/A   Overcast
7:43 AM 53.1 °F 52.0 °F 96% 29.57 in 10.0 mi WSW 3.5 mph - N/A   Overcast
7:53 AM 53.1 °F 52.0 °F 96% 29.57 in 10.0 mi Calm Calm - N/A   Mostly Cloudy
8:36 AM 55.0 °F 52.0 °F 89% 29.54 in 10.0 mi South 3.5 mph - N/A   Overcast
8:53 AM 55.9 °F 54.0 °F 93% 29.53 in 10.0 mi Calm Calm - N/A   Overcast
9:16 AM 59.0 °F 53.1 °F 81% 29.52 in 10.0 mi Calm Calm - N/A   Mostly Cloudy
9:29 AM 57.9 °F 52.0 °F 81% 29.51 in 10.0 mi Variable 3.5 mph - 0.01 in Rain Light Rain
9:53 AM 53.1 °F 51.1 °F 93% 29.49 in 10.0 mi Variable 3.5 mph - 0.01 in   Overcast
10:07 AM 53.1 °F 51.1 °F 93% 29.49 in 6.0 mi NE 4.6 mph - N/A   Mostly Cloudy
10:16 AM 53.1 °F 52.0 °F 96% 29.49 in 4.0 mi Calm Calm - 0.00 in Rain Light Rain
10:38 AM 54.0 °F 52.0 °F 93% 29.48 in 10.0 mi Calm Calm - 0.01 in Rain Light Rain
10:53 AM 55.0 °F 52.0 °F 89% 29.47 in 7.0 mi Calm Calm - 0.01 in Rain Light Rain
11:05 AM 54.0 °F 52.0 °F 93% 29.47 in 4.0 mi Calm Calm - 0.03 in Rain Light Rain
11:34 AM 54.0 °F 53.1 °F 97% 29.46 in 2.5 mi SSE 4.6 mph - 0.07 in Rain Light Rain
11:48 AM 55.4 °F 53.6 °F 94% 29.45 in 3.0 mi ESE 8.1 mph - 0.12 in Rain Rain
11:53 AM 55.9 °F 54.0 °F 93% 29.46 in 2.5 mi Calm Calm - 0.15 in Rain Rain
12:12 PM 57.0 °F 54.0 °F 89% 29.46 in 7.0 mi NW 4.6 mph - 0.06 in Rain Light Rain
12:51 PM 55.4 °F 53.6 °F 94% 29.50 in 2.5 mi WNW 3.5 mph - 0.19 in Rain Rain
12:53 PM 55.9 °F 54.0 °F 93% 29.50 in 2.5 mi West 4.6 mph - 0.19 in Rain Light Rain
1:00 PM 57.0 °F 53.1 °F 87% 29.50 in 10.0 mi West 5.8 mph - 0.00 in Rain Light Rain
1:53 PM 61.0 °F 54.0 °F 78% 29.50 in 10.0 mi Variable 4.6 mph - 0.00 in   Partly Cloudy
2:53 PM 57.0 °F 53.1 °F 87% 29.55 in 10.0 mi NNW 5.8 mph - N/A   Mostly Cloudy
3:53 PM 59.0 °F 54.0 °F 83% 29.57 in 10.0 mi North 5.8 mph - 0.00 in   Overcast
4:46 PM 57.0 °F 53.1 °F 87% 29.59 in 10.0 mi SE 5.8 mph - 0.00 in Rain Light Rain
4:53 PM 57.0 °F 52.0 °F 83% 29.60 in 10.0 mi SSE 5.8 mph - 0.01 in Rain Light Rain
5:53 PM 57.9 °F 52.0 °F 81% 29.59 in 10.0 mi Calm Calm - 0.03 in   Mostly Cloudy
6:53 PM 55.9 °F 50.0 °F 80% 29.61 in 10.0 mi WSW 9.2 mph - N/A   Mostly Cloudy
7:53 PM 55.0 °F 50.0 °F 83% 29.62 in 10.0 mi West 5.8 mph - 0.00 in   Mostly Cloudy
8:53 PM 54.0 °F 50.0 °F 86% 29.65 in 10.0 mi West 13.8 mph - N/A   Mostly Cloudy
9:53 PM 55.0 °F 50.0 °F 83% 29.67 in 10.0 mi SSW 4.6 mph - 0.01 in Rain Light Rain
10:53 PM 55.0 °F 48.0 °F 77% 29.68 in 10.0 mi WSW 6.9 mph - 0.00 in   Mostly Cloudy
11:53 PM 54.0 °F 48.9 °F 83% 29.70 in 10.0 mi West 12.7 mph - N/A   Overcast